Weather History for KCXO - September, 2013

Change the Weather History Date:

Saturday, September 7, 2013

  Actual Average (KDWH) Record (KDWH)
Temperature  
Mean Temperature 82 °F -  
Max Temperature 93 °F 89 °F 96 °F (2000)
Min Temperature 70 °F 68 °F 57 °F (2011)
Cooling Degree Days 16    
Growing Degree Days 32 (Base 50)    
Moisture  
Dew Point 72 °F    
Average Humidity 87    
Maximum Humidity 100    
Minimum Humidity 46    
Precipitation  
Precipitation 0.48 in - - ()
Sea Level Pressure  
Sea Level Pressure 30.00 in    
Wind  
Wind Speed 2 mph (East)    
Max Wind Speed 17 mph    
Max Gust Speed 22 mph    
Visibility 9 miles    
Events Rain , Thunderstorm    
Averages and records for this station are not official NWS values.
T = Trace of Precipitation, MM = Missing Value Source: NWS Daily Summary

Daily Weather History Graph

Daily Weather History Graph

Search for Another Location

Airport or City:

Trip Planner

Search our weather history database for the weather conditions in past years. The results will help you decide how hot, cold, wet, or windy it might be!

Date:

Astronomy

Sep. 07, 2013 Rise Set
Actual Time 7:01 AM CDT 7:36 PM CDT
Civil Twilight 6:37 AM CDT 8:00 PM CDT
Nautical Twilight 6:09 AM CDT 8:29 PM CDT
Astronomical Twilight 5:40 AM CDT 8:58 PM CDT
Moon 9:03 AM CDT (9/7) 8:51 PM CDT (9/7)
Length of Visible Light 13h 23m
Length of Day
12h 34m
Waxing Crescent, 5% of the Moon is Illuminated
Sep 7
Waxing Crescent
Sep 12
First Quarter
Sep 19
Full
Sep 26
Last Quarter
Oct 4
New

Hourly Weather History & Observations

Time (CDT) Temp. Heat Index Dew Point Humidity Pressure Visibility Wind Dir Wind Speed Gust Speed Precip Events Conditions
12:53 AM 73.9 °F - 72.0 °F 93% 29.98 in 10.0 mi Calm Calm - N/A   Clear
1:53 AM 73.0 °F - 72.0 °F 96% 29.99 in 10.0 mi Calm Calm - N/A   Clear
2:53 AM 71.1 °F - 70.0 °F 96% 29.99 in 10.0 mi Calm Calm - N/A   Clear
3:53 AM 71.1 °F - 70.0 °F 96% 29.99 in 10.0 mi Calm Calm - N/A   Clear
4:53 AM 71.1 °F - 70.0 °F 96% 29.99 in 10.0 mi Calm Calm - N/A   Clear
5:53 AM 71.1 °F - 70.0 °F 96% 29.99 in 10.0 mi Calm Calm - N/A   Clear
6:53 AM 70.0 °F - 69.1 °F 97% 30.01 in 10.0 mi Calm Calm - N/A   Clear
7:53 AM 73.0 °F - 72.0 °F 96% 30.02 in 10.0 mi Calm Calm - N/A   Clear
8:53 AM 79.0 °F - 75.9 °F 90% 30.02 in 10.0 mi Calm Calm - N/A   Clear
9:53 AM 82.9 °F 90.2 °F 75.0 °F 77% 30.04 in 10.0 mi Calm Calm - N/A   Scattered Clouds
10:12 AM 84.2 °F 92.3 °F 75.2 °F 74% 30.05 in 10.0 mi Variable 3.5 mph - N/A   Mostly Cloudy
10:22 AM 84.2 °F 92.3 °F 75.2 °F 74% 30.05 in 10.0 mi ENE 4.6 mph - N/A   Mostly Cloudy
10:53 AM 88.0 °F 94.7 °F 72.0 °F 59% 30.04 in 10.0 mi Variable 6.9 mph - N/A   Partly Cloudy
11:53 AM 90.0 °F 96.4 °F 71.1 °F 54% 30.03 in 10.0 mi East 5.8 mph - N/A   Partly Cloudy
12:53 PM 91.0 °F 97.6 °F 71.1 °F 52% 30.01 in 10.0 mi South 9.2 mph - N/A   Overcast
1:30 PM 93.2 °F 98.8 °F 69.8 °F 46% 30.00 in 10.0 mi SE 5.8 mph - N/A Thunderstorm Clear
1:53 PM 93.0 °F 100.1 °F 71.1 °F 49% 29.99 in 10.0 mi SE 17.3 mph 21.9 mph N/A Thunderstorm Thunderstorm
2:41 PM 75.2 °F - 71.6 °F 89% 30.05 in 1.8 mi North 13.8 mph 20.7 mph 0.17 in Rain , Thunderstorm Heavy Thunderstorms and Rain
2:53 PM 72.0 °F - 71.1 °F 97% 30.04 in 1.2 mi North 3.5 mph 20.7 mph 0.39 in Rain , Thunderstorm Heavy Thunderstorms and Rain
2:59 PM 71.6 °F - 71.6 °F 100% 30.05 in 3.0 mi North 5.8 mph - 0.01 in Rain , Thunderstorm Thunderstorms and Rain
3:48 PM 73.4 °F - 71.6 °F 94% 30.00 in 10.0 mi East 4.6 mph - 0.06 in Rain Light Rain
3:53 PM 73.0 °F - 72.0 °F 96% 29.99 in 10.0 mi Calm Calm - 0.06 in   Mostly Cloudy
4:53 PM 73.9 °F - 72.0 °F 93% 29.98 in 10.0 mi SE 5.8 mph - 0.03 in   Scattered Clouds
5:19 PM 73.4 °F - 73.4 °F 100% 29.98 in 10.0 mi Calm Calm - N/A   Scattered Clouds
5:53 PM 75.0 °F - 73.0 °F 94% 29.96 in 10.0 mi Calm Calm - N/A   Clear
6:53 PM 75.0 °F - 73.9 °F 96% 29.96 in 10.0 mi Calm Calm - N/A   Clear
7:53 PM 73.9 °F - 73.0 °F 97% 29.99 in 10.0 mi Calm Calm - N/A   Clear
8:53 PM 73.0 °F - 72.0 °F 96% 29.98 in 10.0 mi Calm Calm - N/A   Clear
9:53 PM 73.0 °F - 72.0 °F 96% 29.99 in 9.0 mi Calm Calm - N/A   Clear
10:53 PM 72.0 °F - 71.1 °F 97% 29.98 in 7.0 mi Calm Calm - N/A   Clear
11:53 PM 71.1 °F - 71.1 °F 100% 29.97 in 5.0 mi Calm Calm - N/A   Clear